TDRS 13

Last updated on Thu Jul 03 2025 00:02:38 GMT+0000 (Coordinated Universal Time)

1 42915U 17047A 25183.54399417 -.00000094 00000+0 00000+0 0 9993 2 42915 3.4419 353.7462 0016061 113.2916 358.0006 1.00272642 28849
UTC large
Height (km)
Speed (km/s)
/
Latitude / Longitude
Inclination (degrees)
Orbital Period (minutes)
Azimuth
Elevation
Range (km)
Doppler Factor

Next 0 passes for location: London (51.5072 / 0.1276)

Sorry there are no passes over London.